{"data":{"norad_id":66044,"intl_designator":"2025-233M","name":"QIANFAN-102","alt_names":[],"object_type":"PAYLOAD","status":"ACTIVE","operator":null,"country":"PRC","launch_date":"2025-10-17","launch_site_code":"TAISC","launch_vehicle":null,"mission":null,"orbit_class":"UNKNOWN","rcs_meters":null,"size_class":null,"mass_kg":null,"dimensions":null,"purposes":[],"wikipedia_slug":null,"has_3d_model":false,"image_url":null,"decayed_at":null,"tle_current":{"epoch":"2026-05-25T03:28:44.707296Z","epoch_age_seconds":72683,"freshness":"FRESH","line1":"1 66044U 25233M   26145.14496189  .00000127  00000+0  17798-3 0  9999","line2":"2 66044  89.0024  45.4284 0002049  73.3565 286.7811 13.51006290 30122","mean_motion":13.5100629,"eccentricity":0.0002049,"inclination_deg":89.0024,"raan_deg":45.4284,"arg_perigee_deg":73.3565,"mean_anomaly_deg":286.7811,"bstar":0.00017798,"rev_number":3012,"period_min":106.58721655545,"perigee_km":1067.0326437589,"apogee_km":1070.0842995632,"semimajor_km":7446.6954716611,"source":"CELESTRAK","updated_at":"2026-05-25T13:38:05.922342Z"}}}